Location: Great Chart
(51.1333°N, 0.8333°E)
Time: 11:33:04
(UTC+00:00)

ADEOS II - Pass Details

Date: 19 September 2020
Orbit: 799 x 801 km, 98.5° (Epoch: 30 October)

Event Time Altitude Azimuth Distance (km) Brightness Sun altitude
Rises 03:11:11 0° 11° (N) 3,322 5.9 -22.6°
Reaches altitude 10° 03:13:36 10° 5° (N) 2,388 5.0 -22.2°
Maximum altitude 03:18:37 46° 294° (WNW) 1,071 2.5 -21.6°
Enters shadow 03:19:24 43° 268° (W) 1,122 2.4 -21.5°
